Temperature
4 4 4 4 4 4 3 3 3 3 3 3 3 3 3 2 2 2 2 2 2 2 2 2 2 1 1 1 1 1 1 0 0 1 1 1 1 1 1 2 2 2 2
4 4 4 4 4 3 3 3 3 3 2 2 2 2 2 2 2 2 2 2 2 2 2 1 1 1 1 1 0 0 0 0 0 0 0 0 0 1 1 1 1 2 2
3 3 3 3 3 3 3 3 3 2 2 2 2 2 2 2 1 1 1 2 1 1 1 1 1 1 0 0 0 0 0 -0 -0 -0 -0 -0 -0 0 1 1 1 1 2
3 3 3 3 3 3 3 3 2 2 2 2 2 1 1 1 1 1 1 1 1 1 1 1 1 0 0 0 -0 -0 -0 -0 -1 -1 -1 -1 -0 -0 0 0 0 1 1
3 3 3 3 3 3 2 2 2 2 2 2 1 1 1 1 1 1 1 1 1 0 0 0 0 0 0 -0 -1 -1 -1 -1 -1 -1 -1 -1 -1 -1 -1 -1 -1 -0 0
2 2 2 2 2 2 2 2 2 2 2 1 1 1 1 1 1 0 0 0 -0 -0 -0 -0 -0 -0 -0 -0 -1 -1 -1 -1 -1 -1 -1 -1 -1 -1 -1 -1 -1 -1 -1
2 2 2 2 2 2 2 2 2 1 1 1 1 0 1 0 0 -0 -0 -0 -1 -1 -1 -1 -1 -1 -1 -1 -1 -1 -1 -1 -1 -1 -1 -1 -1 -1 -1 -1 -1 -1 -1
1 1 2 2 2 2 1 1 1 1 1 0 0 0 0 0 -0 -0 -1 -1 -1 -1 -1 -1 -1 -1 -1 -1 -1 -1 -1 -1 -1 -1 -1 -1 -1 -1 -1 -1 -1 -1 -1
1 1 1 1 1 1 1 1 1 0 0 -0 -0 -0 -0 -0 -0 -1 -1 -1 -1 -1 -1 -1 -1 -2 -1 -1 -2 -2 -2 -2 -1 -1 -1 -1 -1 -1 -1 -2 -2 -2 -2
1 1 1 1 1 1 1 0 0 -0 -0 -0 -1 -1 -1 -1 -1 -1 -1 -2 -2 -2 -2 -2 -2 -2 -2 -2 -2 -2 -2 -2 -2 -1 -2 -2 -2 -2 -2 -2 -2 -2 -2
0 0 0 0 0 0 0 -0 -0 -1 -1 -1 -1 -1 -1 -1 -1 -2 -2 -2 -2 -2 -2 -2 -2 -2 -2 -2 -2 -2 -2 -2 -2 -2 -2 -2 -2 -2 -2 -2 -2 -2 -2
-0 -0 -0 -0 -0 -0 -0 -1 -1 -1 -1 -1 -1 -2 -2 -2 -2 -2 -2 -2 -2 -3 -3 -3 -3 -3 -3 -3 -3 -3 -2 -2 -2 -2 -2 -2 -2 -2 -2 -2 -2 -2 -2
-0 -0 -1 -1 -1 -1 -1 -1 -1 -1 -2 -2 -2 -2 -2 -2 -2 -2 -2 -2 -3 -3 -3 -3 -3 -3 -3 -3 -3 -3 -3 -3 -3 -3 -3 -3 -3 -3 -2 -2 -2 -2 -2
-1 -1 -1 -1 -1 -1 -1 -1 -1 -2 -2 -2 -2 -2 -2 -2 -2 -2 -3 -3 -3 -3 -3 -3 -3 -3 -3 -3 -3 -3 -3 -3 -3 -3 -3 -3 -3 -3 -3 -3 -3 -3 -2
-1 -1 -1 -1 -1 -1 -2 -2 -2 -2 -2 -2 -3 -3 -3 -2 -2 -2 -3 -3 -3 -3 -3 -3 -3 -3 -3 -4 -4 -4 -4 -4 -4 -3 -3 -3 -4 -4 -3 -3 -3 -3 -3
-1 -1 -1 -2 -2 -2 -2 -2 -2 -2 -2 -2 -2 -3 -3 -2 -2 -3 -3 -3 -3 -3 -3 -4 -4 -4 -4 -4 -4 -4 -4 -4 -4 -4 -4 -4 -4 -4 -4 -4 -4 -4 -4
-2 -2 -2 -2 -2 -2 -2 -2 -2 -2 -2 -2 -2 -3 -3 -3 -3 -3 -3 -3 -3 -3 -4 -4 -4 -4 -4 -4 -4 -4 -4 -4 -4 -4 -4 -4 -4 -4 -4 -4 -4 -4 -4
-2 -2 -2 -2 -2 -2 -2 -2 -3 -3 -3 -3 -3 -3 -3 -3 -3 -3 -3 -3 -4 -4 -4 -4 -4 -4 -4 -5 -5 -5 -5 -5 -5 -5 -5 -5 -5 -5 -5 -5 -5 -5 -4
-2 -2 -2 -2 -2 -3 -3 -3 -3 -3 -3 -3 -3 -3 -3 -3 -3 -3 -3 -4 -4 -4 -4 -4 -4 -4 -4 -5 -5 -5 -5 -5 -5 -5 -5 -5 -5 -5 -5 -5 -5 -5 -5
-2 -2 -2 -2 -3 -3 -3 -3 -3 -3 -3 -3 -4 -3 -4 -4 -4 -4 -4 -4 -4 -4 -4 -4 -4 -4 -4 -5 -5 -5 -5 -5 -5 -5 -5 -5 -5 -5 -5 -5 -5 -5 -5
-2 -2 -2 -2 -3 -3 -3 -3 -3 -4 -4 -4 -4 -4 -4 -4 -4 -4 -4 -4 -4 -4 -4 -4 -4 -5 -5 -5 -5 -5 -5 -5 -5 -5 -5 -5 -5 -5 -5 -5 -5 -5 -5
-2 -2 -2 -3 -3 -3 -3 -3 -4 -4 -4 -4 -4 -4 -4 -4 -4 -4 -5 -5 -5 -5 -4 -5 -5 -5 -5 -5 -5 -5 -5 -5 -6 -6 -6 -6 -6 -6 -5 -5 -6 -5 -5
-3 -3 -3 -3 -3 -3 -4 -4 -4 -4 -4 -4 -4 -4 -4 -4 -4 -5 -5 -5 -5 -5 -5 -5 -5 -5 -5 -5 -5 -5 -6 -6 -6 -6 -6 -6 -6 -6 -5 -6 -6 -6 -5
-3 -3 -3 -3 -4 -4 -4 -4 -4 -4 -4 -4 -4 -4 -4 -4 -4 -5 -5 -5 -5 -5 -5 -5 -5 -5 -5 -5 -5 -6 -6 -6 -6 -6 -6 -6 -6 -6 -6 -6 -6 -6 -5
-3 -4 -4 -4 -4 -4 -4 -4 -4 -4 -4 -4 -5 -5 -5 -5 -5 -5 -5 -5 -5 -5 -5 -5 -5 -5 -5 -5 -6 -6 -6 -6 -6 -6 -6 -6 -6 -6 -6 -6 -6 -6 -6
-4 -4 -4 -4 -4 -4 -4 -4 -5 -5 -5 -5 -5 -5 -5 -5 -5 -5 -5 -5 -5 -5 -5 -5 -5 -5 -6 -6 -6 -6 -6 -6 -6 -6 -6 -6 -6 -6 -6 -6 -6 -6 -6
Wind_Speed
6 6 6 6 6 6 6 7 6 6 6 6 6 6 6 6 6 6 6 6 7 6 5 6 6 6 5 5 5 5 5 6 7 7 5 5 6 6 6 7 7 8 8
5 5 6 5 5 6 6 6 6 6 6 6 6 7 7 7 7 7 7 7 7 7 7 6 7 5 7 6 5 5 5 6 7 8 6 5 7 6 6 7 6 7 8
4 5 5 6 6 6 6 6 6 6 6 6 6 7 7 7 7 7 7 7 7 8 7 7 7 7 7 6 6 5 5 5 6 7 6 5 5 5 5 6 7 6 7
4 5 5 6 6 6 6 6 6 6 7 7 7 7 7 7 7 7 7 7 7 7 7 7 7 7 7 7 6 6 5 5 6 6 6 5 4 4 4 5 5 5 6
4 5 5 5 5 5 6 6 6 6 7 7 7 7 7 7 7 7 7 7 7 7 7 7 7 7 8 7 5 6 5 5 5 5 6 5 5 4 4 4 6 6 6
5 5 5 5 5 5 6 6 6 6 6 6 7 7 7 6 6 7 7 7 7 7 7 7 7 8 8 9 9 8 7 7 6 6 6 6 7 6 5 5 5 5 5
5 5 4 5 5 6 6 6 6 6 6 7 7 7 7 7 7 8 8 7 7 7 7 6 5 6 7 7 8 9 9 9 9 8 8 8 7 6 6 6 6 6 6
5 5 5 5 5 5 6 6 6 6 6 6 7 7 7 7 7 8 8 8 7 7 7 7 7 7 7 7 7 7 7 7 8 7 8 8 7 6 6 6 6 6 6
5 5 5 5 6 6 6 6 6 6 6 6 6 7 7 7 7 8 8 6 6 7 6 6 6 7 7 7 7 6 6 6 6 8 8 7 7 7 5 4 4 4 4
5 5 5 5 6 6 6 6 5 5 6 5 6 6 7 7 7 8 8 5 5 5 5 6 6 7 6 7 6 6 6 6 5 5 5 6 6 6 6 5 5 4 4
4 4 5 5 6 6 5 5 5 5 5 5 5 5 6 6 7 8 8 5 5 5 5 5 5 6 6 6 6 6 5 5 4 4 4 4 4 3 4 4 4 4 5
4 4 5 5 4 4 4 4 4 5 5 5 5 4 4 5 6 7 8 8 6 6 5 4 4 6 6 6 6 5 4 4 3 3 4 4 3 3 3 4 4 5 5
4 4 4 4 4 4 4 4 4 4 4 4 4 4 4 4 4 7 7 8 8 6 5 5 4 5 5 5 5 4 4 3 3 3 4 4 3 3 3 3 3 3 4
5 4 4 4 3 3 3 3 4 4 4 4 4 4 4 3 4 4 4 5 6 6 4 4 4 4 3 3 3 3 3 3 3 4 3 3 2 2 2 2 3 3 3
5 4 4 4 4 3 3 4 4 4 4 5 4 4 4 4 5 5 4 4 4 4 3 2 2 2 2 2 2 2 2 2 3 2 2 2 2 2 2 2 2 3 3
4 4 3 3 3 3 3 3 3 4 4 5 6 5 5 5 5 6 6 6 5 5 4 3 3 3 3 3 2 2 2 2 2 2 3 2 3 2 2 2 2 3 3
5 4 3 3 3 3 3 3 2 2 3 4 4 5 5 5 5 5 5 5 5 5 4 3 3 3 3 2 2 2 2 2 2 2 2 2 3 3 2 3 3 3 3
4 4 4 3 3 3 3 3 3 3 2 2 3 4 4 4 4 4 4 4 3 3 3 3 3 3 3 2 2 2 2 2 2 2 2 2 3 3 3 3 3 3 3
4 3 3 3 3 3 3 3 3 3 2 2 2 1 2 3 3 3 3 2 3 3 3 3 3 3 2 2 2 2 2 2 2 2 2 2 3 2 3 3 3 4 4
3 4 3 3 3 3 3 3 3 3 3 3 2 2 1 1 2 2 2 2 3 3 3 3 3 3 3 2 2 2 2 2 2 2 3 3 3 3 3 4 4 4 4
3 3 3 3 3 3 3 3 3 3 3 3 2 2 2 2 2 2 2 2 2 3 3 2 2 3 3 3 2 3 3 3 2 2 3 3 3 3 3 3 4 4 3
2 3 3 2 2 2 3 3 3 3 3 3 2 2 3 2 2 2 2 2 2 2 2 2 2 2 3 3 3 3 3 3 3 2 3 3 3 3 3 3 4 3 3
2 2 2 2 2 2 2 2 3 3 3 2 2 2 2 2 2 2 2 2 1 1 1 2 2 2 2 2 3 3 3 3 3 3 3 3 3 3 3 3 4 4 3
2 2 2 2 2 2 2 2 2 2 2 2 2 2 2 2 2 2 1 1 1 1 1 1 2 2 2 2 2 3 3 3 3 3 4 4 3 3 3 3 3 3 3
2 2 2 2 2 2 2 2 2 2 2 2 2 2 2 1 1 1 1 1 1 1 1 1 1 2 3 3 3 3 3 4 4 3 3 3 3 4 3 4 3 3 3
2 2 2 2 2 2 2 2 2 2 2 2 2 2 1 1 1 1 1 1 1 1 1 1 1 2 2 2 3 3 3 3 2 2 2 3 3 3 3 2 2 2 2
Wind_Direction
219 220 222 221 221 223 227 232 233 234 231 229 229 230 231 232 230 229 230 230 231 233 231 232 236 238 240 241 241 243 250 254 260 274 276 277 277 278 279 278 280 279 279
227 224 225 226 224 224 227 230 231 231 232 232 230 230 231 232 230 228 228 230 232 233 232 231 235 237 240 242 241 243 249 253 258 268 274 276 276 278 283 282 281 278 278
229 228 229 229 229 230 232 233 233 232 230 231 229 229 231 232 231 231 230 230 234 235 231 231 234 234 238 240 241 245 250 254 256 261 270 277 277 282 290 285 282 281 278
227 229 232 233 232 234 236 237 236 233 230 230 231 231 232 232 232 232 232 233 234 234 230 229 232 233 237 239 241 243 249 255 255 257 263 272 279 289 288 290 288 288 285
229 232 238 238 236 238 239 240 239 236 234 232 232 232 232 232 233 233 232 233 233 233 230 229 230 234 239 241 244 245 246 253 254 256 260 268 270 282 282 285 285 290 288
233 239 243 241 236 237 240 241 239 237 235 233 233 232 232 233 237 237 235 231 232 234 234 234 232 231 235 238 243 248 247 247 250 253 257 258 264 268 278 277 282 287 287
239 243 241 239 237 237 239 238 237 235 234 233 235 235 236 237 234 235 235 234 234 235 236 236 235 235 235 240 239 240 243 246 249 252 254 254 260 264 268 271 272 275 279
241 245 242 240 242 241 239 239 238 235 233 234 236 237 239 240 236 236 235 234 237 237 237 236 236 235 233 238 237 244 247 247 251 254 258 262 262 263 260 262 265 278 290
243 248 247 241 243 242 242 243 239 234 233 233 235 238 240 241 236 234 233 235 237 238 239 239 238 238 235 232 236 244 252 258 259 260 271 274 277 272 267 257 259 270 287
248 254 255 247 242 240 242 243 240 236 236 236 236 237 239 241 238 234 228 232 237 240 241 238 236 240 238 230 232 239 249 259 262 260 260 262 265 258 251 243 239 249 274
251 255 254 249 245 242 242 239 237 235 236 236 237 239 240 243 238 233 227 228 232 237 240 240 237 235 239 239 242 243 249 261 257 258 261 266 265 260 263 265 255 243 251
244 247 249 247 244 237 234 237 235 231 233 237 238 244 246 243 238 234 230 232 234 235 240 241 237 229 235 239 243 244 241 251 251 253 257 261 265 268 273 277 274 268 260
239 243 248 247 243 234 226 229 231 229 231 234 233 239 243 241 239 237 234 233 230 234 240 239 238 230 235 237 240 238 231 238 242 250 255 260 269 272 276 279 285 286 284
240 243 244 238 238 233 227 224 225 227 231 231 235 238 242 239 236 232 228 227 225 234 236 227 225 228 233 242 238 233 240 241 244 247 253 265 275 274 270 277 284 294 297
242 240 239 235 235 234 231 229 231 231 235 234 236 236 235 238 234 223 223 222 220 220 212 220 224 219 228 238 240 246 250 246 250 248 245 255 267 271 278 284 281 284 280
241 238 235 230 233 235 237 246 243 245 250 250 250 251 252 253 242 226 225 221 215 204 203 213 221 224 229 232 236 244 251 251 252 251 250 253 260 266 279 287 283 277 276
238 235 230 226 226 229 230 232 246 260 246 250 256 255 256 246 230 220 218 218 210 201 213 220 223 223 226 228 238 243 255 259 253 252 256 258 264 270 275 277 278 282 282
244 233 225 226 224 225 225 225 229 237 251 261 263 260 254 237 223 217 210 208 216 213 220 222 229 226 222 225 230 237 251 261 259 254 257 259 259 264 271 274 275 281 285
239 228 222 223 219 220 222 222 225 231 238 250 262 251 248 234 213 205 196 208 211 218 222 223 226 222 222 224 228 233 242 255 267 266 258 258 257 257 264 274 277 282 284
239 231 224 221 216 212 212 213 219 226 231 229 229 236 215 200 213 214 214 217 215 221 223 221 223 219 217 220 224 227 237 248 255 259 262 261 260 256 256 263 268 272 280
236 224 215 216 215 213 210 209 214 221 222 221 228 225 208 208 222 232 227 223 222 225 225 223 225 218 213 218 223 225 232 244 255 263 263 262 263 262 262 262 268 272 278
223 216 209 213 211 207 207 205 206 211 215 218 225 214 207 211 221 233 232 231 233 236 229 223 226 223 215 216 219 224 232 241 252 262 267 266 264 263 264 265 274 278 274
213 207 203 206 207 207 207 207 205 204 206 210 212 210 208 218 221 222 232 233 231 236 240 229 222 219 219 227 231 229 233 241 250 259 267 267 261 259 263 268 274 274 272
209 205 203 204 204 205 207 207 207 206 208 206 210 214 215 218 219 218 223 217 217 227 236 233 225 214 214 235 246 247 252 261 266 256 259 259 259 263 267 269 273 272 270
208 208 206 206 206 205 207 210 208 204 203 205 210 215 217 212 206 205 208 202 209 218 233 239 230 212 211 225 246 260 262 268 272 269 261 256 259 266 271 274 273 277 277
207 211 210 209 209 206 205 210 213 207 201 202 210 218 223 217 200 195 198 195 209 219 233 244 236 219 221 233 242 252 264 267 269 274 273 258 256 261 275 278 280 277 273
Height
1453 1453 1454 1454 1454 1454 1454 1455 1455 1455 1455 1455 1455 1455 1455 1455 1454 1454 1454 1454 1454 1454 1454 1454 1454 1454 1455 1455 1455 1455 1455 1455 1453 1451 1451 1450 1449 1447 1446 1445 1444 1442 1441
1449 1449 1449 1450 1450 1450 1450 1450 1450 1450 1450 1450 1450 1450 1450 1450 1450 1450 1450 1450 1450 1450 1449 1449 1450 1450 1450 1450 1450 1450 1451 1450 1450 1447 1446 1445 1444 1443 1442 1441 1439 1438 1437
1444 1445 1445 1445 1445 1445 1445 1445 1445 1446 1446 1446 1445 1445 1445 1445 1445 1445 1445 1445 1445 1445 1445 1445 1445 1445 1446 1446 1446 1446 1446 1446 1445 1444 1442 1442 1440 1439 1438 1437 1435 1434 1433
1440 1440 1441 1441 1441 1441 1441 1441 1441 1441 1441 1441 1441 1441 1441 1441 1441 1440 1441 1440 1440 1440 1440 1440 1441 1441 1441 1441 1442 1442 1442 1442 1441 1440 1439 1438 1436 1435 1434 1433 1431 1430 1429
1436 1436 1436 1437 1436 1436 1436 1436 1436 1436 1436 1436 1436 1436 1436 1436 1436 1436 1436 1436 1436 1436 1436 1436 1436 1436 1437 1437 1437 1437 1438 1437 1437 1436 1435 1434 1432 1431 1430 1429 1428 1426 1425
1432 1432 1432 1432 1432 1432 1432 1431 1431 1431 1431 1431 1431 1431 1431 1431 1431 1431 1431 1431 1431 1431 1431 1431 1431 1432 1432 1433 1433 1433 1433 1433 1433 1432 1431 1429 1428 1428 1427 1426 1425 1423 1421
1428 1428 1428 1428 1428 1428 1427 1427 1426 1426 1426 1426 1426 1426 1426 1426 1427 1427 1427 1427 1427 1427 1427 1427 1427 1427 1428 1428 1428 1429 1429 1429 1429 1428 1427 1425 1425 1424 1423 1422 1422 1420 1418
1424 1424 1424 1424 1424 1423 1423 1422 1421 1421 1421 1421 1422 1422 1422 1422 1422 1422 1422 1423 1423 1423 1423 1422 1422 1423 1423 1424 1424 1424 1424 1424 1424 1424 1423 1422 1422 1421 1420 1419 1418 1416 1415
1420 1420 1420 1420 1419 1419 1418 1418 1417 1417 1417 1417 1417 1417 1417 1417 1418 1418 1418 1418 1418 1418 1418 1418 1418 1418 1419 1420 1420 1420 1420 1420 1420 1419 1419 1418 1417 1417 1417 1416 1414 1413 1411
1416 1416 1416 1415 1415 1415 1414 1414 1413 1413 1413 1413 1413 1413 1413 1413 1413 1413 1414 1414 1414 1414 1414 1414 1414 1414 1415 1415 1416 1416 1415 1415 1415 1415 1415 1414 1414 1413 1413 1412 1411 1410 1409
1413 1412 1412 1412 1411 1411 1410 1410 1410 1410 1409 1409 1409 1409 1409 1409 1409 1409 1410 1410 1410 1410 1410 1410 1410 1410 1411 1411 1412 1412 1411 1412 1411 1411 1411 1410 1410 1409 1409 1409 1408 1407 1406
1409 1408 1408 1408 1408 1407 1407 1407 1407 1406 1406 1406 1405 1405 1405 1405 1405 1405 1405 1406 1406 1407 1406 1406 1406 1407 1407 1408 1408 1408 1408 1408 1408 1407 1407 1406 1406 1405 1405 1405 1405 1404 1403
1405 1405 1405 1404 1404 1403 1403 1403 1403 1403 1402 1402 1402 1401 1401 1401 1401 1402 1402 1402 1402 1403 1403 1403 1403 1403 1404 1404 1404 1405 1405 1404 1404 1403 1403 1403 1403 1402 1402 1401 1401 1400 1400
1401 1401 1401 1400 1400 1400 1400 1400 1399 1399 1399 1398 1398 1398 1398 1398 1398 1398 1398 1399 1399 1399 1400 1400 1400 1400 1400 1401 1401 1401 1401 1401 1401 1400 1400 1400 1400 1399 1399 1398 1397 1396 1396
1398 1397 1397 1397 1397 1396 1396 1396 1396 1396 1395 1395 1395 1395 1394 1394 1394 1395 1395 1395 1396 1396 1397 1397 1396 1397 1397 1397 1398 1398 1398 1398 1398 1398 1397 1397 1397 1396 1396 1395 1395 1394 1393
1394 1393 1393 1393 1393 1393 1393 1393 1392 1393 1392 1392 1392 1392 1391 1392 1392 1392 1392 1393 1393 1393 1394 1393 1393 1394 1394 1394 1394 1395 1395 1395 1395 1395 1395 1394 1394 1393 1393 1393 1392 1391 1390
1390 1390 1389 1389 1389 1389 1389 1389 1389 1389 1389 1389 1389 1388 1388 1388 1389 1389 1389 1390 1390 1391 1390 1390 1390 1391 1391 1392 1392 1392 1392 1392 1392 1392 1392 1392 1392 1391 1391 1390 1389 1389 1387
1387 1387 1386 1386 1386 1386 1386 1386 1386 1385 1385 1385 1386 1386 1386 1386 1386 1386 1387 1387 1387 1387 1387 1387 1388 1388 1388 1389 1389 1389 1389 1390 1389 1389 1389 1389 1389 1389 1388 1388 1387 1386 1385
1383 1383 1383 1383 1383 1383 1383 1383 1383 1383 1383 1383 1383 1383 1383 1383 1383 1384 1384 1384 1384 1384 1385 1385 1385 1385 1386 1386 1386 1386 1387 1387 1387 1387 1387 1386 1387 1386 1386 1385 1385 1384 1383
1380 1380 1380 1380 1379 1379 1379 1379 1380 1380 1380 1380 1380 1380 1381 1381 1381 1381 1381 1381 1381 1382 1382 1382 1383 1383 1383 1383 1383 1384 1384 1384 1385 1385 1384 1384 1384 1384 1383 1383 1382 1381 1380
1377 1377 1377 1376 1376 1376 1376 1376 1377 1377 1377 1377 1378 1378 1379 1378 1378 1379 1379 1379 1379 1379 1380 1380 1380 1380 1381 1381 1381 1381 1381 1382 1382 1382 1382 1381 1381 1381 1381 1380 1380 1379 1378
1374 1374 1374 1373 1373 1373 1373 1373 1374 1374 1374 1375 1375 1376 1376 1376 1376 1376 1377 1377 1377 1377 1378 1378 1378 1378 1378 1378 1378 1378 1379 1379 1379 1379 1379 1379 1379 1379 1378 1378 1377 1376 1376
1371 1371 1371 1371 1370 1370 1370 1371 1371 1371 1372 1372 1372 1373 1373 1373 1374 1374 1374 1374 1375 1375 1375 1375 1375 1375 1376 1376 1376 1376 1376 1377 1377 1377 1377 1377 1376 1376 1376 1375 1375 1374 1373
1369 1369 1368 1368 1368 1368 1368 1368 1368 1369 1369 1369 1369 1370 1370 1371 1371 1371 1372 1372 1372 1372 1372 1373 1373 1373 1373 1374 1374 1374 1375 1375 1375 1375 1375 1375 1374 1374 1374 1373 1373 1372 1372
1366 1366 1366 1365 1365 1365 1365 1365 1366 1366 1366 1366 1367 1367 1368 1368 1369 1369 1369 1370 1370 1370 1370 1370 1370 1371 1371 1372 1372 1372 1373 1373 1373 1373 1373 1373 1373 1372 1372 1371 1371 1371 1370
1363 1363 1363 1363 1363 1363 1363 1363 1363 1363 1363 1364 1364 1365 1365 1366 1366 1367 1367 1367 1368 1368 1368 1368 1368 1369 1369 1369 1370 1370 1370 1371 1371 1372 1372 1371 1371 1370 1370 1369 1369 1369 1369